�N����,����,�~����,�C��,���x,�C��,����,���ϕ���,�ő�u�ԕ���,�ő厞����,���˗�,�I�_���x,�n�����x,�ő啗���N��,DTYPE
"23/11/02","00:10",0.0,10.9,93.7,1015.4,305.4,1.6,2.1,316.8,0.00,10.0,15.3,"00:09:28",1
"23/11/02","00:20",0.0,10.6,93.9,1015.4,310.7,2.0,2.4,319.9,0.00,9.7,15.0,"00:18:24",1
"23/11/02","00:30",0.0,10.5,94.2,1015.6,313.2,2.1,2.5,318.8,0.00,9.6,15.2,"00:21:44",1
"23/11/02","00:40",0.0,10.3,94.4,1015.6,302.0,1.6,2.1,313.2,0.00,9.5,15.1,"00:39:28",1
"23/11/02","00:50",0.0,10.3,94.5,1015.6,303.3,1.6,1.9,313.6,0.00,9.5,15.2,"00:41:12",1
"23/11/02","01:00",0.0,10.3,94.6,1015.4,310.5,2.0,2.1,314.9,0.00,9.5,15.1,"00:50:32",1
"23/11/02","01:10",0.0,10.2,94.7,1015.4,298.8,1.7,2.0,313.0,0.00,9.4,15.2,"01:00:48",1
"23/11/02","01:20",0.0,10.5,94.9,1015.4,298.5,1.7,2.1,304.1,0.00,9.8,14.9,"01:19:44",1
"23/11/02","01:30",0.0,11.0,94.9,1015.4,291.4,1.8,2.2,314.5,0.00,10.3,15.0,"01:27:16",1
"23/11/02","01:40",0.0,10.9,94.9,1015.2,299.8,1.7,2.4,309.9,0.00,10.2,15.0,"01:31:04",1
"23/11/02","01:50",0.0,10.9,95.1,1015.4,289.8,1.6,2.0,317.6,0.00,10.2,14.7,"01:48:26",1
"23/11/02","02:00",0.0,10.8,95.2,1015.2,310.9,2.1,2.5,316.8,0.00,10.1,14.9,"01:57:54",1
"23/11/02","02:10",0.0,10.6,95.4,1015.2,310.0,1.6,2.8,318.0,0.00,9.9,14.7,"02:01:52",1
"23/11/02","02:20",0.0,10.2,95.4,1015.4,301.2,1.2,2.0,306.0,0.00,9.5,14.7,"02:19:04",1
"23/11/02","02:30",0.0,10.1,95.7,1015.4,316.5,2.3,2.7,322.0,0.00,9.5,14.8,"02:28:16",1
"23/11/02","02:40",0.0,10.2,95.8,1015.4,314.9,1.8,2.4,318.0,0.00,9.6,14.9,"02:32:00",1
"23/11/02","02:50",0.0,10.2,95.9,1015.4,313.8,2.0,2.4,315.8,0.00,9.6,14.5,"02:47:04",1
"23/11/02","03:00",0.0,10.1,96.0,1015.4,297.2,1.5,2.0,317.4,0.00,9.5,14.6,"02:53:04",1
"23/11/02","03:10",0.0,10.0,96.1,1015.2,290.0,1.6,1.8,304.8,0.00,9.4,14.5,"03:09:12",1
"23/11/02","03:20",0.0,10.3,96.2,1015.2,288.1,1.6,2.2,309.9,0.00,9.8,14.6,"03:11:28",1
"23/11/02","03:30",0.0,10.1,96.2,1014.7,302.7,1.7,2.4,315.1,0.00,9.6,14.6,"03:29:48",1
"23/11/02","03:40",0.0,9.9,96.3,1014.7,303.2,1.6,2.2,318.4,0.00,9.4,14.3,"03:30:08",1
"23/11/02","03:50",0.0,10.2,96.6,1014.7,302.5,1.8,2.5,325.7,0.00,9.7,14.5,"03:47:52",1
"23/11/02","04:00",0.0,10.4,96.5,1014.5,304.6,1.7,2.4,303.2,0.00,9.9,14.5,"03:50:16",1
"23/11/02","04:10",0.0,10.2,96.5,1014.7,313.6,1.5,1.9,323.6,0.00,9.7,14.4,"04:02:08",1
"23/11/02","04:20",0.0,10.0,96.7,1014.9,302.4,1.5,2.1,309.4,0.00,9.5,14.3,"04:18:32",1
"23/11/02","04:30",0.0,9.9,96.7,1015.2,309.2,1.5,2.2,314.7,0.00,9.4,14.5,"04:28:20",1
"23/11/02","04:40",0.0,9.7,96.8,1014.9,293.5,0.8,1.2,304.2,0.00,9.3,14.2,"04:30:08",1
"23/11/02","04:50",0.0,9.5,97.1,1014.5,308.0,1.6,2.0,313.4,0.00,9.1,14.3,"04:44:56",1
"23/11/02","05:00",0.0,9.3,97.1,1014.9,303.8,1.3,1.8,318.8,0.00,8.9,14.3,"04:57:12",1
"23/11/02","05:10",0.0,9.2,97.2,1014.9,278.4,0.6,1.0,303.9,0.00,8.8,14.4,"05:00:08",1
"23/11/02","05:20",0.0,9.2,97.4,1014.9,311.6,1.3,2.0,316.7,0.00,8.8,14.2,"05:17:40",1
"23/11/02","05:30",0.0,9.0,97.4,1014.9,285.3,1.1,1.8,314.0,0.00,8.7,14.3,"05:20:18",1
"23/11/02","05:40",0.0,9.0,97.5,1014.9,298.9,1.2,1.6,304.7,0.00,8.7,14.2,"05:36:54",1
"23/11/02","05:50",0.0,9.1,97.6,1014.9,291.9,0.7,1.6,313.4,0.00,8.8,14.1,"05:45:36",1
"23/11/02","06:00",0.0,9.0,97.6,1015.2,296.4,1.2,1.9,313.0,0.00,8.7,13.9,"05:55:40",1
"23/11/02","06:10",0.0,9.1,97.7,1015.2,311.7,1.5,1.9,323.4,0.00,8.8,14.2,"06:04:56",1
"23/11/02","06:20",0.0,9.0,97.7,1015.2,282.3,0.8,1.4,311.7,0.00,8.7,14.0,"06:15:22",1
"23/11/02","06:30",0.0,8.9,97.8,1015.4,284.3,0.8,1.4,309.3,0.00,8.6,14.1,"06:27:50",1
"23/11/02","06:40",0.0,9.2,97.9,1015.2,310.5,2.0,2.5,314.3,0.00,8.9,14.0,"06:35:52",1
"23/11/02","06:50",0.0,9.2,97.9,1015.4,298.5,1.1,1.6,318.6,0.00,8.9,14.2,"06:45:12",1
"23/11/02","07:00",0.0,9.6,98.0,1015.4,296.3,0.8,1.7,311.9,0.00,9.3,13.8,"06:59:12",1
"23/11/02","07:10",0.0,10.2,97.4,1015.4,271.0,0.6,1.8,315.5,0.01,9.8,13.9,"07:00:32",1
"23/11/02","07:20",0.0,10.5,97.8,1015.2,295.8,1.3,2.1,316.1,0.02,10.2,14.0,"07:17:12",1
"23/11/02","07:30",0.0,11.0,97.8,1015.9,307.6,1.8,2.6,323.5,0.03,10.7,14.0,"07:25:12",1
"23/11/02","07:40",0.0,11.7,97.7,1015.9,272.8,0.6,1.4,313.6,0.04,11.4,13.9,"07:31:20",1
"23/11/02","07:50",0.0,12.4,97.6,1016.1,252.3,0.2,0.6,233.0,0.06,12.1,13.8,"07:42:00",1
"23/11/02","08:00",0.0,13.0,97.4,1016.4,308.4,0.6,1.4,312.8,0.08,12.6,14.1,"07:57:36",1
"23/11/02","08:10",0.0,13.4,97.5,1016.1,248.4,0.3,1.2,325.0,0.10,13.1,14.0,"08:00:24",1
"23/11/02","08:20",0.0,14.2,97.3,1016.4,212.1,0.2,0.8,264.0,0.12,13.8,13.9,"08:19:52",1
"23/11/02","08:30",0.0,15.0,97.2,1016.6,276.7,0.3,0.8,304.8,0.13,14.6,14.1,"08:27:28",1
"23/11/02","08:40",0.0,15.6,96.9,1016.6,313.0,0.6,1.3,324.2,0.15,15.1,14.0,"08:32:00",1
"23/11/02","08:50",0.0,16.1,96.3,1016.4,271.6,0.5,0.9,299.5,0.17,15.6,14.1,"08:42:00",1
"23/11/02","09:00",0.0,16.4,96.2,1016.6,259.7,0.6,1.0,249.7,0.19,15.8,14.0,"08:50:08",1
"23/11/02","09:10",0.0,15.8,94.2,1016.1,236.9,0.6,1.6,247.9,0.21,14.9,14.0,"09:00:48",1
"23/11/02","09:20",0.0,17.0,94.6,1015.9,239.5,0.3,1.0,229.8,0.23,16.2,14.4,"09:10:24",1
"23/11/02","09:30",0.0,17.4,93.6,1016.6,260.5,0.3,0.8,119.0,0.25,16.4,14.2,"09:25:44",1
"23/11/02","09:40",0.0,17.9,90.4,1016.4,214.9,0.5,1.3,245.0,0.27,16.3,14.4,"09:39:44",1
"23/11/02","09:50",0.0,18.3,84.3,1016.4,226.5,0.8,1.9,221.7,0.29,15.6,14.4,"09:47:04",1
"23/11/02","10:00",0.0,19.4,74.1,1016.4,219.5,0.8,1.9,132.2,0.30,14.7,14.3,"09:54:40",1
"23/11/02","10:10",0.0,20.2,69.1,1015.6,225.2,0.7,1.4,313.5,0.31,14.4,14.3,"10:03:36",1
"23/11/02","10:20",0.0,20.9,66.9,1015.4,305.7,0.8,1.9,248.7,0.32,14.6,14.7,"10:10:24",1
"23/11/02","10:30",0.0,21.1,66.2,1015.2,203.8,0.8,1.9,132.8,0.34,14.6,14.6,"10:23:44",1
"23/11/02","10:40",0.0,21.3,65.1,1014.7,251.3,1.0,2.1,244.7,0.35,14.5,14.9,"10:33:20",1
"23/11/02","10:50",0.0,21.8,64.7,1014.9,236.9,0.7,2.5,230.9,0.35,14.9,14.8,"10:40:24",1
"23/11/02","11:00",0.0,21.9,64.7,1014.9,205.7,1.1,2.5,209.6,0.36,15.0,15.0,"10:51:20",1
"23/11/02","11:10",0.0,22.4,63.4,1014.2,103.3,0.8,2.1,216.2,0.36,15.2,15.0,"11:08:56",1
"23/11/02","11:20",0.0,22.6,61.6,1014.5,194.9,1.0,2.4,204.0,0.37,14.9,15.2,"11:17:04",1
"23/11/02","11:30",0.0,22.9,60.3,1014.0,173.5,0.7,2.0,140.9,0.37,14.8,15.4,"11:26:08",1
"23/11/02","11:40",0.0,23.0,60.8,1013.8,191.8,1.2,2.6,237.4,0.37,15.1,15.5,"11:39:20",1
"23/11/02","11:50",0.0,23.4,60.3,1014.0,205.9,1.2,2.5,194.6,0.37,15.3,15.6,"11:47:44",1
"23/11/02","12:00",0.0,23.4,59.2,1013.3,205.6,1.5,3.3,210.4,0.37,15.0,15.7,"11:52:00",1
"23/11/02","12:10",0.0,23.8,58.2,1013.3,187.7,1.1,3.5,228.3,0.37,15.1,15.7,"12:00:24",1
"23/11/02","12:20",0.0,23.8,56.5,1013.0,170.3,1.1,2.6,205.7,0.36,14.7,16.0,"12:18:24",1
"23/11/02","12:30",0.0,23.8,56.7,1012.8,200.2,1.6,3.3,208.1,0.36,14.7,16.1,"12:29:20",1
"23/11/02","12:40",0.0,24.1,57.2,1012.8,198.1,1.5,3.1,225.2,0.35,15.2,16.2,"12:34:32",1
"23/11/02","12:50",0.0,24.3,56.3,1012.3,166.9,1.2,2.7,154.0,0.34,15.1,16.3,"12:42:00",1
"23/11/02","13:00",0.0,24.3,55.4,1012.1,178.4,1.3,3.1,221.9,0.33,14.8,16.4,"12:59:52",1
"23/11/02","13:10",0.0,24.8,56.4,1012.1,139.0,1.2,2.9,166.2,0.32,15.6,16.5,"13:01:28",1
"23/11/02","13:20",0.0,24.8,55.4,1011.6,178.7,1.1,2.5,109.1,0.31,15.3,16.4,"13:17:04",1
"23/11/02","13:30",0.0,25.1,54.4,1011.4,170.1,0.8,2.1,172.9,0.30,15.3,16.6,"13:26:08",1
"23/11/02","13:40",0.0,25.2,54.8,1011.2,196.5,1.5,3.9,220.1,0.28,15.5,16.6,"13:31:36",1
"23/11/02","13:50",0.0,25.4,53.0,1011.6,185.9,1.1,2.0,211.4,0.27,15.2,16.7,"13:40:08",1
"23/11/02","14:00",0.0,25.3,52.8,1011.4,199.3,1.3,2.7,211.4,0.25,15.0,17.1,"13:52:40",1
"23/11/02","14:10",0.0,25.3,53.7,1011.4,168.4,1.2,2.8,196.7,0.23,15.3,16.9,"14:09:12",1
"23/11/02","14:20",0.0,25.3,52.5,1011.2,201.7,1.5,3.6,219.5,0.22,14.9,17.1,"14:17:36",1
"23/11/02","14:30",0.0,25.3,52.4,1011.2,192.2,1.5,2.9,230.0,0.20,14.9,17.1,"14:22:16",1
"23/11/02","14:40",0.0,25.3,52.3,1011.4,202.2,1.2,3.2,194.0,0.18,14.9,17.1,"14:32:24",1
"23/11/02","14:50",0.0,25.2,52.4,1011.2,201.2,1.5,3.5,222.2,0.16,14.8,17.3,"14:49:36",1
"23/11/02","15:00",0.0,25.1,52.2,1011.6,190.8,1.6,3.4,209.5,0.14,14.7,17.4,"14:51:04",1
"23/11/02","15:10",0.0,24.9,52.9,1011.9,183.8,1.3,3.3,161.7,0.12,14.7,17.2,"15:05:20",1
"23/11/02","15:20",0.0,24.8,52.8,1011.6,189.1,1.6,3.1,167.1,0.10,14.6,17.3,"15:14:08",1
"23/11/02","15:30",0.0,24.8,53.1,1011.4,201.6,1.3,2.7,231.2,0.08,14.6,17.3,"15:27:44",1
"23/11/02","15:40",0.0,24.5,51.8,1011.9,209.1,1.7,3.1,195.9,0.07,14.0,17.4,"15:33:12",1
"23/11/02","15:50",0.0,24.5,52.0,1011.4,196.2,1.0,3.4,216.4,0.05,14.0,17.5,"15:46:48",1
"23/11/02","16:00",0.0,24.4,53.2,1011.6,223.7,1.1,2.5,230.4,0.04,14.3,17.3,"15:50:08",1
"23/11/02","16:10",0.0,23.9,54.2,1011.6,202.2,0.7,2.2,229.5,0.03,14.1,17.6,"16:00:32",1
"23/11/02","16:20",0.0,23.7,54.3,1011.9,226.9,0.8,1.9,232.3,0.01,14.0,17.6,"16:18:32",1
"23/11/02","16:30",0.0,23.1,56.1,1012.1,203.9,0.3,2.0,222.3,0.00,13.9,17.4,"16:20:16",1
"23/11/02","16:40",0.0,22.3,59.9,1011.9,329.0,0.7,1.2,317.5,0.00,14.2,17.4,"16:31:44",1
"23/11/02","16:50",0.0,21.3,64.4,1011.9,313.1,1.1,1.9,337.6,0.00,14.4,17.5,"16:46:08",1
"23/11/02","17:00",0.0,20.4,67.2,1012.6,299.1,0.8,1.3,332.8,0.00,14.2,17.4,"16:50:24",1
"23/11/02","17:10",0.0,19.8,69.1,1012.6,306.6,1.0,1.6,332.5,0.00,14.0,17.2,"17:02:32",1
"23/11/02","17:20",0.0,19.5,70.4,1012.6,320.2,1.3,1.9,313.5,0.00,14.0,17.3,"17:12:24",1
"23/11/02","17:30",0.0,19.2,71.5,1013.0,299.4,0.8,1.8,307.2,0.00,14.0,17.3,"17:26:48",1
"23/11/02","17:40",0.0,18.6,72.8,1013.3,293.8,0.7,1.2,304.6,0.00,13.7,17.3,"17:39:44",1
"23/11/02","17:50",0.0,18.4,74.6,1013.3,292.2,1.3,2.5,310.1,0.00,13.9,17.2,"17:47:12",1
"23/11/02","18:00",0.0,18.4,75.8,1013.8,287.0,1.2,1.7,300.2,0.00,14.1,17.1,"17:51:12",1
"23/11/02","18:10",0.0,18.1,76.6,1013.5,322.9,0.8,1.8,296.2,0.00,14.0,17.2,"18:00:24",1
"23/11/02","18:20",0.0,17.3,77.6,1013.8,287.8,0.8,1.6,269.2,0.00,13.4,17.1,"18:13:12",1
"23/11/02","18:30",0.0,17.0,79.3,1014.0,322.2,1.2,1.8,320.0,0.00,13.4,17.2,"18:26:32",1
"23/11/02","18:40",0.0,16.7,80.9,1014.0,310.6,1.5,2.4,319.5,0.00,13.4,16.9,"18:31:04",1
"23/11/02","18:50",0.0,16.7,81.8,1014.0,301.7,1.3,2.1,313.0,0.00,13.6,17.1,"18:49:24",1
"23/11/02","19:00",0.0,16.7,82.2,1014.0,293.7,1.5,1.8,267.1,0.00,13.7,16.7,"18:52:24",1
"23/11/02","19:10",0.0,16.3,82.4,1014.2,304.2,1.1,1.7,303.7,0.00,13.3,16.7,"19:00:08",1
"23/11/02","19:20",0.0,15.8,82.9,1014.2,296.9,1.1,1.7,316.5,0.00,12.9,16.7,"19:15:20",1
"23/11/02","19:30",0.0,15.8,83.7,1014.0,291.9,1.2,1.7,291.5,0.00,13.1,16.7,"19:21:12",1
"23/11/02","19:40",0.0,15.7,84.3,1014.5,305.2,1.2,1.9,328.5,0.00,13.1,16.7,"19:36:26",1
"23/11/02","19:50",0.0,15.2,84.6,1014.2,301.9,1.0,1.3,310.2,0.00,12.7,16.6,"19:44:00",1
"23/11/02","20:00",0.0,14.8,85.1,1014.5,296.3,1.0,1.6,307.4,0.00,12.4,16.5,"19:57:04",1
"23/11/02","20:10",0.0,14.2,85.7,1014.0,309.5,1.2,2.6,337.0,0.00,11.9,16.5,"20:03:46",1
"23/11/02","20:20",0.0,13.8,86.4,1014.2,298.8,1.0,1.7,315.9,0.00,11.6,16.5,"20:16:36",1
"23/11/02","20:30",0.0,13.7,87.3,1014.0,291.4,1.2,2.0,307.2,0.00,11.7,16.5,"20:29:30",1
"23/11/02","20:40",0.0,14.4,87.8,1014.0,292.5,1.2,2.0,300.9,0.00,12.4,16.2,"20:31:36",1
"23/11/02","20:50",0.0,14.1,88.2,1014.2,311.6,1.5,1.9,307.2,0.00,12.2,16.2,"20:43:04",1
"23/11/02","21:00",0.0,13.5,88.8,1014.2,295.2,1.2,2.0,321.1,0.00,11.7,16.3,"20:58:12",1
"23/11/02","21:10",0.0,13.4,89.4,1014.5,306.3,1.3,2.1,316.1,0.00,11.7,16.4,"21:08:20",1
"23/11/02","21:20",0.0,13.1,89.8,1014.5,290.0,1.2,1.9,312.3,0.00,11.5,16.4,"21:12:10",1
"23/11/02","21:30",0.0,12.9,90.3,1014.7,296.7,1.3,2.1,323.8,0.00,11.4,16.0,"21:21:30",1
"23/11/02","21:40",0.0,13.1,90.7,1014.2,301.9,1.5,1.8,316.1,0.00,11.7,16.0,"21:36:34",1
"23/11/02","21:50",0.0,13.0,91.0,1014.5,309.2,1.5,1.9,316.9,0.00,11.6,16.1,"21:43:28",1
"23/11/02","22:00",0.0,12.7,91.4,1014.5,305.5,1.7,2.5,318.9,0.00,11.4,16.1,"21:50:48",1
"23/11/02","22:10",0.0,12.3,91.9,1014.5,292.2,1.5,2.0,321.0,0.00,11.1,15.9,"22:06:24",1
"23/11/02","22:20",0.0,12.4,92.2,1014.7,312.5,2.0,2.5,322.1,0.00,11.2,15.8,"22:17:14",1
"23/11/02","22:30",0.0,12.3,92.5,1014.9,312.7,2.0,2.5,325.6,0.00,11.2,15.9,"22:29:02",1
"23/11/02","22:40",0.0,12.1,92.7,1014.9,304.4,1.8,2.5,322.8,0.00,11.0,15.8,"22:30:34",1
"23/11/02","22:50",0.0,11.9,92.9,1015.2,305.7,1.6,1.9,311.2,0.00,10.8,15.8,"22:40:28",1
"23/11/02","23:00",0.0,11.8,93.2,1014.7,305.8,1.5,2.1,324.3,0.00,10.8,15.7,"22:58:46",1
"23/11/02","23:10",0.0,11.9,93.5,1015.2,316.6,2.1,2.5,319.7,0.00,10.9,15.6,"23:02:06",1
"23/11/02","23:20",0.0,11.8,93.6,1014.5,303.0,1.7,2.1,313.8,0.00,10.8,15.7,"23:14:40",1
"23/11/02","23:30",0.0,11.7,93.9,1014.5,299.1,1.6,2.2,317.7,0.00,10.8,15.6,"23:29:40",1
"23/11/02","23:40",0.0,12.2,94.1,1014.5,300.7,1.7,1.9,317.0,0.00,11.3,15.8,"23:30:58",1
"23/11/02","23:50",0.0,12.6,94.1,1014.7,293.2,1.6,1.9,285.2,0.00,11.7,15.3,"23:40:58",1
"23/11/02","24:00",0.0,12.8,94.2,1014.5,292.1,1.6,2.0,304.8,0.00,11.9,15.6,"23:55:54",1
